DLH402 EDDF-KEWR

Flight info

Callsign DLH402
Flight time N/A
Altitude 40000
Route OBOKA5G/25C OBOKA Z29 TORNU DCT VICOT DCT GALSO Q63 ERING L179 UGBET Q60 OKSAW DCT BIBPE DCT TIGWE DCT FELCA DCT FADZU DCT NICXI DCT OFSOX DCT SLANY DCT DIMUS DCT MALOT/M084F390 DCT 54N020W 54N030W 54N040W 53N050W DCT RIKAL/N0487F400 N576B ANATI DCT IMORI DCT HANAA FLOSI4
Aircraft A359/H-SDE2E3GHIJ3J4J5LM1ORWXY/LB1D1

Departure

Time 2026-05-05 17:08
Airport Frankfurt Main Airport (EDDF)

Arrival

Time N/A
Airport Newark Liberty International Airport (KEWR)
Time Latitude Longitude Altitude Speed Heading
2026-05-05 16:02 50.04726 8.56275 370 ft 0 kts 340°
2026-05-05 16:38 50.04739 8.56268 368 ft 4 kts 340°
2026-05-05 16:38 50.04727 8.56274 362 ft 0 kts 340°
2026-05-05 16:43 50.04718 8.56280 367 ft 4 kts 340°
2026-05-05 16:43 50.04692 8.56294 362 ft 4 kts 339°
2026-05-05 16:44 50.04668 8.56310 365 ft 4 kts 330°
2026-05-05 16:44 50.04648 8.56334 369 ft 4 kts 288°
2026-05-05 16:44 50.04650 8.56365 368 ft 4 kts 250°
2026-05-05 16:44 50.04659 8.56405 368 ft 4 kts 249°
2026-05-05 16:45 50.04662 8.56416 367 ft 0 kts 250°
2026-05-05 16:52 50.04658 8.56398 368 ft 6 kts 250°
2026-05-05 16:52 50.04632 8.56289 366 ft 15 kts 250°
2026-05-05 16:52 50.04594 8.56129 370 ft 15 kts 250°
2026-05-05 16:53 50.04549 8.55982 370 ft 14 kts 228°
2026-05-05 16:53 50.04463 8.55926 367 ft 13 kts 196°
2026-05-05 16:53 50.04360 8.55922 368 ft 17 kts 167°
2026-05-05 16:53 50.04240 8.55929 364 ft 18 kts 201°
2026-05-05 16:54 50.04116 8.55961 365 ft 19 kts 156°
2026-05-05 16:54 50.04089 8.56118 362 ft 17 kts 70°
2026-05-05 16:54 50.04130 8.56294 361 ft 18 kts 69°
2026-05-05 16:54 50.04173 8.56473 367 ft 18 kts 70°
2026-05-05 16:55 50.04216 8.56654 367 ft 18 kts 69°
2026-05-05 16:55 50.04259 8.56835 370 ft 18 kts 70°
2026-05-05 16:55 50.04307 8.57035 370 ft 21 kts 69°
2026-05-05 16:55 50.04363 8.57263 372 ft 24 kts 69°
2026-05-05 16:56 50.04424 8.57521 369 ft 26 kts 70°
2026-05-05 16:56 50.04485 8.57781 376 ft 26 kts 70°
2026-05-05 16:56 50.04548 8.58044 373 ft 26 kts 70°
2026-05-05 16:56 50.04609 8.58298 378 ft 23 kts 69°
2026-05-05 16:57 50.04637 8.58414 377 ft 5 kts 69°
2026-05-05 16:57 50.04637 8.58416 376 ft 0 kts 68°
2026-05-05 16:58 50.04639 8.58423 376 ft 2 kts 69°
2026-05-05 16:58 50.04653 8.58490 375 ft 9 kts 81°
2026-05-05 16:59 50.04624 8.58565 375 ft 9 kts 147°
2026-05-05 16:59 50.04605 8.58581 375 ft 0 kts 156°
2026-05-05 17:01 50.04601 8.58582 375 ft 2 kts 159°
2026-05-05 17:01 50.04561 8.58608 376 ft 11 kts 158°
2026-05-05 17:01 50.04495 8.58588 377 ft 10 kts 224°
2026-05-05 17:02 50.04470 8.58515 376 ft 0 kts 248°
2026-05-05 17:07 50.04450 8.58438 376 ft 31 kts 248°
2026-05-05 17:07 50.04296 8.57794 374 ft 94 kts 250°
2026-05-05 17:07 50.04006 8.56572 368 ft 146 kts 249°
2026-05-05 17:08 50.03615 8.54969 747 ft 156 kts 249°
2026-05-05 17:08 50.03258 8.53414 1445 ft 155 kts 252°
2026-05-05 17:08 50.02911 8.51691 1762 ft 177 kts 253°
2026-05-05 17:08 50.02702 8.49706 2088 ft 197 kts 270°
2026-05-05 17:09 50.02811 8.47522 2457 ft 213 kts 276°
2026-05-05 17:09 50.02969 8.45177 2993 ft 221 kts 271°
2026-05-05 17:09 50.02850 8.42760 3543 ft 231 kts 261°
2026-05-05 17:09 50.02569 8.40205 3912 ft 247 kts 258°
2026-05-05 17:10 50.02248 8.37545 4546 ft 253 kts 257°
2026-05-05 17:10 50.01909 8.34831 5222 ft 257 kts 257°
2026-05-05 17:10 50.01569 8.32077 5917 ft 261 kts 257°
2026-05-05 17:10 50.01330 8.29252 6590 ft 267 kts 268°
2026-05-05 17:11 50.01673 8.26390 7273 ft 273 kts 288°
2026-05-05 17:11 50.02417 8.23647 7722 ft 277 kts 292°
2026-05-05 17:11 50.03232 8.20929 7842 ft 278 kts 292°
2026-05-05 17:11 50.04051 8.18191 7855 ft 280 kts 292°
2026-05-05 17:12 50.04866 8.15437 7847 ft 280 kts 292°
2026-05-05 17:12 50.05698 8.12724 7845 ft 281 kts 296°
2026-05-05 17:12 50.06805 8.10207 7843 ft 283 kts 306°
2026-05-05 17:12 50.08033 8.07812 7841 ft 283 kts 307°
2026-05-05 17:13 50.09275 8.05427 7889 ft 283 kts 307°
2026-05-05 17:13 50.10517 8.03033 8254 ft 285 kts 307°
2026-05-05 17:13 50.11768 8.00608 9026 ft 288 kts 307°
2026-05-05 17:13 50.13026 7.98169 9855 ft 290 kts 307°
2026-05-05 17:14 50.14294 7.95703 10322 ft 304 kts 306°
2026-05-05 17:14 50.15654 7.93048 10634 ft 323 kts 307°
2026-05-05 17:14 50.17100 7.90227 10958 ft 342 kts 307°
2026-05-05 17:14 50.18621 7.87258 11270 ft 358 kts 307°
2026-05-05 17:15 50.20198 7.84178 11822 ft 366 kts 307°
2026-05-05 17:15 50.21800 7.81044 12450 ft 371 kts 307°
2026-05-05 17:15 50.23414 7.77884 12951 ft 375 kts 307°
2026-05-05 17:15 50.25164 7.74837 13608 ft 379 kts 317°
2026-05-05 17:16 50.27364 7.72521 14227 ft 384 kts 333°
2026-05-05 17:16 50.29808 7.70765 14824 ft 388 kts 336°
2026-05-05 17:16 50.32262 7.69113 15414 ft 391 kts 336°
2026-05-05 17:16 50.34779 7.67415 15985 ft 395 kts 336°
2026-05-05 17:17 50.37317 7.65693 16554 ft 399 kts 336°
2026-05-05 17:17 50.39877 7.63948 17158 ft 402 kts 336°
2026-05-05 17:17 50.42462 7.62174 17681 ft 408 kts 336°
2026-05-05 17:17 50.45078 7.60376 18218 ft 412 kts 335°
2026-05-05 17:18 50.47715 7.58558 18745 ft 415 kts 336°
2026-05-05 17:18 50.50371 7.56727 19273 ft 419 kts 336°
2026-05-05 17:18 50.53048 7.54878 19807 ft 422 kts 336°
2026-05-05 17:18 50.55720 7.52910 20351 ft 425 kts 330°
2026-05-05 17:19 50.58266 7.50497 20882 ft 428 kts 326°
2026-05-05 17:19 50.60777 7.47934 21420 ft 432 kts 326°
2026-05-05 17:19 50.63302 7.45333 21974 ft 435 kts 326°
2026-05-05 17:19 50.65846 7.42717 22498 ft 439 kts 326°
2026-05-05 17:20 50.68418 7.40070 22978 ft 444 kts 326°
2026-05-05 17:20 50.71007 7.37392 23479 ft 447 kts 325°
2026-05-05 17:20 50.73448 7.34337 23905 ft 449 kts 314°
2026-05-05 17:20 50.75449 7.30557 24334 ft 449 kts 301°
2026-05-05 17:21 50.77067 7.26327 24764 ft 451 kts 297°
2026-05-05 17:21 50.78551 7.21951 25213 ft 454 kts 295°
2026-05-05 17:21 50.79959 7.17544 25660 ft 456 kts 294°
2026-05-05 17:22 50.82789 7.08507 26522 ft 462 kts 294°
2026-05-05 17:22 50.84230 7.03945 26959 ft 465 kts 294°
2026-05-05 17:22 50.85690 6.99369 27448 ft 466 kts 295°
2026-05-05 17:22 50.87162 6.94779 27868 ft 469 kts 295°